Year,Month,Day,Hour,Minute,Value (Times are PST for windspeed in km/hr)
2018,07,01,00,00,3.50
2018,07,01,00,01,1.00
2018,07,01,00,02,1.20
2018,07,01,00,03,0.50
2018,07,01,00,04,1.30
2018,07,01,00,05,1.00
2018,07,01,00,06,2.70
2018,07,01,00,07,0.90
2018,07,01,00,08,1.00
2018,07,01,00,09,4.00
2018,07,01,00,10,4.40
2018,07,01,00,11,0.60
2018,07,01,00,12,0.70
2018,07,01,00,13,3.00
2018,07,01,00,14,3.60
2018,07,01,00,15,0.70
2018,07,01,00,16,3.10
2018,07,01,00,17,2.80
2018,07,01,00,18,3.10
2018,07,01,00,19,4.70
2018,07,01,00,20,2.90
2018,07,01,00,21,2.10
2018,07,01,00,22,0.20
2018,07,01,00,23,0.50
2018,07,01,00,24,0.00
2018,07,01,00,25,0.40
2018,07,01,00,26,1.40
2018,07,01,00,27,0.50
2018,07,01,00,28,2.60
2018,07,01,00,29,1.00
2018,07,01,00,30,2.10
2018,07,01,00,31,0.10
2018,07,01,00,32,0.00
2018,07,01,00,33,1.80
2018,07,01,00,34,1.10
2018,07,01,00,35,1.90
2018,07,01,00,36,0.10
2018,07,01,00,37,0.00
2018,07,01,00,38,0.00
2018,07,01,00,39,0.00
2018,07,01,00,40,0.10
2018,07,01,00,41,1.20
2018,07,01,00,42,0.70
2018,07,01,00,43,0.90
2018,07,01,00,44,0.60
2018,07,01,00,45,0.90
2018,07,01,00,46,0.20
2018,07,01,00,47,0.60
2018,07,01,00,48,0.10
2018,07,01,00,49,0.00
2018,07,01,00,50,0.20
2018,07,01,00,51,0.20
2018,07,01,00,52,0.00
2018,07,01,00,53,0.00
2018,07,01,00,54,0.50
2018,07,01,00,55,0.70
2018,07,01,00,56,4.00
2018,07,01,00,57,1.00
2018,07,01,00,58,1.50
2018,07,01,00,59,2.80
2018,07,01,01,00,0.30
2018,07,01,01,01,0.60
2018,07,01,01,02,2.00
2018,07,01,01,03,5.40
2018,07,01,01,04,2.00
2018,07,01,01,05,0.60
2018,07,01,01,06,2.80
2018,07,01,01,07,0.70
2018,07,01,01,08,1.50
2018,07,01,01,09,0.70
2018,07,01,01,10,0.20
2018,07,01,01,11,1.10
2018,07,01,01,12,1.70
2018,07,01,01,13,1.90
2018,07,01,01,14,0.20
2018,07,01,01,15,1.10
2018,07,01,01,16,0.60
2018,07,01,01,17,2.30
2018,07,01,01,18,3.50
2018,07,01,01,19,0.40
2018,07,01,01,20,3.00
2018,07,01,01,21,1.40
2018,07,01,01,22,2.40
2018,07,01,01,23,3.60
2018,07,01,01,24,4.00
2018,07,01,01,25,3.40
2018,07,01,01,26,2.60
2018,07,01,01,27,3.50
2018,07,01,01,28,2.80
2018,07,01,01,29,2.70
2018,07,01,01,30,0.40
2018,07,01,01,31,0.90
2018,07,01,01,32,4.30
2018,07,01,01,33,5.00
2018,07,01,01,34,1.20
2018,07,01,01,35,2.00
2018,07,01,01,36,1.10
2018,07,01,01,37,1.30
2018,07,01,01,38,0.00
2018,07,01,01,39,0.20
2018,07,01,01,40,0.00
2018,07,01,01,41,3.40
2018,07,01,01,42,0.10
2018,07,01,01,43,0.10
2018,07,01,01,44,1.20
2018,07,01,01,45,1.00
2018,07,01,01,46,1.00
2018,07,01,01,47,0.20
2018,07,01,01,48,3.80
2018,07,01,01,49,0.30
2018,07,01,01,50,0.20
2018,07,01,01,51,0.60
2018,07,01,01,52,1.40
2018,07,01,01,53,4.30
2018,07,01,01,54,2.20
2018,07,01,01,55,0.30
2018,07,01,01,56,0.00
2018,07,01,01,57,0.00
2018,07,01,01,58,0.00
2018,07,01,01,59,0.00
2018,07,01,02,00,0.00
2018,07,01,02,01,0.00
2018,07,01,02,02,1.90
2018,07,01,02,03,1.80
2018,07,01,02,04,2.20
2018,07,01,02,05,3.00
2018,07,01,02,06,1.10
2018,07,01,02,07,2.30
2018,07,01,02,08,2.70
2018,07,01,02,09,0.60
2018,07,01,02,10,0.30
2018,07,01,02,11,1.70
2018,07,01,02,12,0.60
2018,07,01,02,13,1.10
2018,07,01,02,14,1.40
2018,07,01,02,15,1.70
2018,07,01,02,16,0.60
2018,07,01,02,17,1.40
2018,07,01,02,18,6.00
2018,07,01,02,19,6.10
2018,07,01,02,20,6.10
2018,07,01,02,21,2.40
2018,07,01,02,22,5.10
2018,07,01,02,23,3.40
2018,07,01,02,24,1.30
2018,07,01,02,25,3.90
2018,07,01,02,26,4.00
2018,07,01,02,27,2.90
2018,07,01,02,28,2.80
2018,07,01,02,29,2.10
2018,07,01,02,30,1.40
2018,07,01,02,31,1.90
2018,07,01,02,32,2.30
2018,07,01,02,33,0.80
2018,07,01,02,34,1.10
2018,07,01,02,35,2.00
2018,07,01,02,36,2.00
2018,07,01,02,37,2.20
2018,07,01,02,38,3.70
2018,07,01,02,39,3.10
2018,07,01,02,40,2.70
2018,07,01,02,41,2.70
2018,07,01,02,42,1.00
2018,07,01,02,43,3.40
2018,07,01,02,44,1.20
2018,07,01,02,45,1.20
2018,07,01,02,46,0.70
2018,07,01,02,47,0.30
2018,07,01,02,48,0.70
2018,07,01,02,49,0.00
2018,07,01,02,50,0.00
2018,07,01,02,51,0.00
2018,07,01,02,52,0.00
2018,07,01,02,53,0.00
2018,07,01,02,54,1.60
2018,07,01,02,55,2.30
2018,07,01,02,56,0.80
2018,07,01,02,57,3.60
2018,07,01,02,58,5.60
2018,07,01,02,59,0.70
2018,07,01,03,00,0.60
2018,07,01,03,01,4.40
2018,07,01,03,02,0.50
2018,07,01,03,03,0.30
2018,07,01,03,04,0.00
2018,07,01,03,05,0.20
2018,07,01,03,06,3.90
2018,07,01,03,07,2.20
2018,07,01,03,08,2.70
2018,07,01,03,09,1.80
2018,07,01,03,10,1.40
2018,07,01,03,11,0.80
2018,07,01,03,12,0.30
2018,07,01,03,13,1.40
2018,07,01,03,14,0.80
2018,07,01,03,15,0.40
2018,07,01,03,16,0.40
2018,07,01,03,17,1.10
2018,07,01,03,18,0.80
2018,07,01,03,19,1.20
2018,07,01,03,20,1.00
2018,07,01,03,21,0.90
2018,07,01,03,22,1.00
2018,07,01,03,23,0.60
2018,07,01,03,24,1.70
2018,07,01,03,25,0.30
2018,07,01,03,26,1.00
2018,07,01,03,27,1.20
2018,07,01,03,28,2.30
2018,07,01,03,29,4.00
2018,07,01,03,30,7.70
2018,07,01,03,31,2.30
2018,07,01,03,32,2.30
2018,07,01,03,33,2.90
2018,07,01,03,34,1.20
2018,07,01,03,35,0.90
2018,07,01,03,36,1.40
2018,07,01,03,37,3.20
2018,07,01,03,38,1.30
2018,07,01,03,39,3.50
2018,07,01,03,40,1.80
2018,07,01,03,41,1.10
2018,07,01,03,42,0.90
2018,07,01,03,43,5.70
2018,07,01,03,44,5.10
2018,07,01,03,45,2.50
2018,07,01,03,46,2.00
2018,07,01,03,47,4.70
2018,07,01,03,48,2.70
2018,07,01,03,49,3.10
2018,07,01,03,50,3.50
2018,07,01,03,51,3.10
2018,07,01,03,52,4.30
2018,07,01,03,53,3.90
2018,07,01,03,54,4.20
2018,07,01,03,55,4.50
2018,07,01,03,56,3.60
2018,07,01,03,57,3.80
2018,07,01,03,58,6.00
2018,07,01,03,59,4.10
2018,07,01,04,00,7.60
2018,07,01,04,01,4.90
2018,07,01,04,02,3.50
2018,07,01,04,03,3.30
2018,07,01,04,04,3.30
2018,07,01,04,05,6.20
2018,07,01,04,06,9.10
2018,07,01,04,07,4.00
2018,07,01,04,08,7.00
2018,07,01,04,09,4.10
2018,07,01,04,10,7.00
2018,07,01,04,11,11.50
2018,07,01,04,12,6.10
2018,07,01,04,13,4.60
2018,07,01,04,14,3.50
2018,07,01,04,15,4.70
2018,07,01,04,16,6.00
2018,07,01,04,17,8.60
2018,07,01,04,18,6.70
2018,07,01,04,19,10.30
2018,07,01,04,20,10.10
2018,07,01,04,21,8.30
2018,07,01,04,22,8.10
2018,07,01,04,23,5.70
2018,07,01,04,24,4.40
2018,07,01,04,25,6.20
2018,07,01,04,26,4.90
2018,07,01,04,27,4.60
2018,07,01,04,28,5.30
2018,07,01,04,29,6.40
2018,07,01,04,30,5.90
2018,07,01,04,31,8.70
2018,07,01,04,32,5.90
2018,07,01,04,33,3.50
2018,07,01,04,34,4.10
2018,07,01,04,35,6.10
2018,07,01,04,36,5.30
2018,07,01,04,37,3.90
2018,07,01,04,38,6.20
2018,07,01,04,39,5.60
2018,07,01,04,40,2.40
2018,07,01,04,41,4.00
2018,07,01,04,42,3.80
2018,07,01,04,43,2.70
2018,07,01,04,44,4.50
2018,07,01,04,45,4.40
2018,07,01,04,46,6.40
2018,07,01,04,47,7.30
2018,07,01,04,48,6.20
2018,07,01,04,49,5.10
2018,07,01,04,50,4.40
2018,07,01,04,51,4.20
2018,07,01,04,52,6.20
2018,07,01,04,53,4.90
2018,07,01,04,54,4.90
2018,07,01,04,55,5.60
2018,07,01,04,56,5.20
2018,07,01,04,57,5.70
2018,07,01,04,58,7.90
2018,07,01,04,59,4.70
2018,07,01,05,00,3.50
2018,07,01,05,01,4.80
2018,07,01,05,02,3.50
2018,07,01,05,03,5.60
2018,07,01,05,04,6.80
2018,07,01,05,05,4.40
2018,07,01,05,06,4.60
2018,07,01,05,07,7.30
2018,07,01,05,08,6.40
2018,07,01,05,09,4.70
2018,07,01,05,10,5.10
2018,07,01,05,11,6.70
2018,07,01,05,12,5.20
2018,07,01,05,13,4.70
2018,07,01,05,14,4.10
2018,07,01,05,15,6.80
2018,07,01,05,16,4.80
2018,07,01,05,17,4.70
2018,07,01,05,18,7.10
2018,07,01,05,19,7.40
2018,07,01,05,20,8.50
2018,07,01,05,21,6.80
2018,07,01,05,22,7.40
2018,07,01,05,23,6.30
2018,07,01,05,24,5.20
2018,07,01,05,25,5.10
2018,07,01,05,26,6.40
2018,07,01,05,27,3.50
2018,07,01,05,28,3.10
2018,07,01,05,29,2.10
2018,07,01,05,30,2.70
2018,07,01,05,31,2.00
2018,07,01,05,32,3.80
2018,07,01,05,33,6.00
2018,07,01,05,34,4.30
2018,07,01,05,35,2.30
2018,07,01,05,36,0.90
2018,07,01,05,37,4.20
2018,07,01,05,38,4.80
2018,07,01,05,39,4.80
2018,07,01,05,40,4.80
2018,07,01,05,41,5.10
2018,07,01,05,42,3.90
2018,07,01,05,43,3.80
2018,07,01,05,44,3.10
2018,07,01,05,45,5.50
2018,07,01,05,46,5.10
2018,07,01,05,47,2.60
2018,07,01,05,48,1.00
2018,07,01,05,49,3.20
2018,07,01,05,50,1.80
2018,07,01,05,51,2.50
2018,07,01,05,52,2.90
2018,07,01,05,53,5.90
2018,07,01,05,54,5.10
2018,07,01,05,55,4.00
2018,07,01,05,56,3.50
2018,07,01,05,57,3.50
2018,07,01,05,58,7.40
2018,07,01,05,59,5.30
2018,07,01,06,00,5.90
2018,07,01,06,01,6.50
2018,07,01,06,02,4.70
2018,07,01,06,03,6.60
2018,07,01,06,04,6.80
2018,07,01,06,05,3.90
2018,07,01,06,06,4.80
2018,07,01,06,07,4.50
2018,07,01,06,08,6.40
2018,07,01,06,09,4.60
2018,07,01,06,10,5.70
2018,07,01,06,11,5.50
2018,07,01,06,12,5.00
2018,07,01,06,13,5.50
2018,07,01,06,14,6.40
2018,07,01,06,15,4.40
2018,07,01,06,16,4.10
2018,07,01,06,17,2.80
2018,07,01,06,18,6.00
2018,07,01,06,19,5.40
2018,07,01,06,20,4.30
2018,07,01,06,21,5.20
2018,07,01,06,22,6.20
2018,07,01,06,23,5.60
2018,07,01,06,24,8.00
2018,07,01,06,25,6.80
2018,07,01,06,26,6.20
2018,07,01,06,27,5.50
2018,07,01,06,28,6.50
2018,07,01,06,29,6.60
2018,07,01,06,30,6.60
2018,07,01,06,31,5.80
2018,07,01,06,32,3.90
2018,07,01,06,33,5.00
2018,07,01,06,34,4.70
2018,07,01,06,35,5.20
2018,07,01,06,36,4.30
2018,07,01,06,37,4.70
2018,07,01,06,38,5.30
2018,07,01,06,39,4.30
2018,07,01,06,40,5.20
2018,07,01,06,41,5.50
2018,07,01,06,42,5.30
2018,07,01,06,43,7.10
2018,07,01,06,44,6.50
2018,07,01,06,45,3.80
2018,07,01,06,46,2.60
2018,07,01,06,47,4.10
2018,07,01,06,48,7.90
2018,07,01,06,49,3.90
2018,07,01,06,50,9.50
2018,07,01,06,51,4.10
2018,07,01,06,52,7.10
2018,07,01,06,53,6.40
2018,07,01,06,54,8.20
2018,07,01,06,55,6.80
2018,07,01,06,56,3.50
2018,07,01,06,57,7.30
2018,07,01,06,58,1.50
2018,07,01,06,59,4.70
2018,07,01,07,00,5.10
2018,07,01,07,01,3.20
2018,07,01,07,02,5.60
2018,07,01,07,03,7.20
2018,07,01,07,04,5.40
2018,07,01,07,05,5.20
2018,07,01,07,06,3.60
2018,07,01,07,07,5.30
2018,07,01,07,08,6.10
2018,07,01,07,09,6.80
2018,07,01,07,10,7.70
2018,07,01,07,11,5.70
2018,07,01,07,12,4.30
2018,07,01,07,13,5.80
2018,07,01,07,14,6.90
2018,07,01,07,15,4.90
2018,07,01,07,16,5.20
2018,07,01,07,17,5.70
2018,07,01,07,18,7.60
2018,07,01,07,19,5.10
2018,07,01,07,20,5.60
2018,07,01,07,21,5.60
2018,07,01,07,22,5.50
2018,07,01,07,23,7.20
2018,07,01,07,24,5.60
2018,07,01,07,25,7.10
2018,07,01,07,26,9.20
2018,07,01,07,27,3.90
2018,07,01,07,28,7.50
2018,07,01,07,29,6.80
2018,07,01,07,30,7.70
2018,07,01,07,31,6.10
2018,07,01,07,32,7.10
2018,07,01,07,33,8.10
2018,07,01,07,34,6.30
2018,07,01,07,35,8.90
2018,07,01,07,36,5.80
2018,07,01,07,37,4.10
2018,07,01,07,38,7.20
2018,07,01,07,39,7.80
2018,07,01,07,40,4.80
2018,07,01,07,41,3.50
2018,07,01,07,42,4.00
2018,07,01,07,43,5.80
2018,07,01,07,44,7.50
2018,07,01,07,45,6.90
2018,07,01,07,46,4.70
2018,07,01,07,47,4.00
2018,07,01,07,48,4.30
2018,07,01,07,49,5.10
2018,07,01,07,50,4.40
2018,07,01,07,51,3.90
2018,07,01,07,52,3.80
2018,07,01,07,53,8.40
2018,07,01,07,54,6.30
2018,07,01,07,55,7.80
2018,07,01,07,56,5.10
2018,07,01,07,57,5.80
2018,07,01,07,58,7.60
2018,07,01,07,59,7.10
2018,07,01,08,00,6.20
2018,07,01,08,01,7.70
2018,07,01,08,02,6.00
2018,07,01,08,03,6.00
2018,07,01,08,04,6.10
2018,07,01,08,05,7.70
2018,07,01,08,06,7.00
2018,07,01,08,07,7.00
2018,07,01,08,08,4.10
2018,07,01,08,09,5.90
2018,07,01,08,10,8.60
2018,07,01,08,11,5.30
2018,07,01,08,12,6.00
2018,07,01,08,13,6.70
2018,07,01,08,14,6.70
2018,07,01,08,15,2.70
2018,07,01,08,16,6.50
2018,07,01,08,17,8.80
2018,07,01,08,18,6.80
2018,07,01,08,19,8.00
2018,07,01,08,20,8.40
2018,07,01,08,21,7.40
2018,07,01,08,22,5.00
2018,07,01,08,23,6.50
2018,07,01,08,24,6.10
2018,07,01,08,25,12.70
2018,07,01,08,26,10.10
2018,07,01,08,27,5.30
2018,07,01,08,28,6.30
2018,07,01,08,29,7.50
2018,07,01,08,30,8.50
2018,07,01,08,31,5.60
2018,07,01,08,32,7.50
2018,07,01,08,33,5.40
2018,07,01,08,34,5.00
2018,07,01,08,35,6.10
2018,07,01,08,36,8.10
2018,07,01,08,37,4.50
2018,07,01,08,38,5.10
2018,07,01,08,39,6.60
2018,07,01,08,40,6.00
2018,07,01,08,41,6.30
2018,07,01,08,42,6.40
2018,07,01,08,43,8.90
2018,07,01,08,44,6.80
2018,07,01,08,45,7.70
2018,07,01,08,46,9.40
2018,07,01,08,47,6.40
2018,07,01,08,48,4.80
2018,07,01,08,49,4.10
2018,07,01,08,50,3.40
2018,07,01,08,51,5.90
2018,07,01,08,52,8.20
2018,07,01,08,53,5.00
2018,07,01,08,54,5.90
2018,07,01,08,55,6.40
2018,07,01,08,56,5.30
2018,07,01,08,57,3.90
2018,07,01,08,58,4.90
2018,07,01,08,59,10.10
2018,07,01,09,00,8.30
2018,07,01,09,01,5.30
2018,07,01,09,02,5.30
2018,07,01,09,03,7.20
2018,07,01,09,04,4.80
2018,07,01,09,05,5.90
2018,07,01,09,06,6.50
2018,07,01,09,07,5.50
2018,07,01,09,08,4.70
2018,07,01,09,09,5.10
2018,07,01,09,10,6.00
2018,07,01,09,11,6.30
2018,07,01,09,12,4.40
2018,07,01,09,13,4.60
2018,07,01,09,14,6.80
2018,07,01,09,15,6.00
2018,07,01,09,16,7.20
2018,07,01,09,17,7.90
2018,07,01,09,18,5.90
2018,07,01,09,19,4.40
2018,07,01,09,20,6.70
2018,07,01,09,21,6.40
2018,07,01,09,22,5.40
2018,07,01,09,23,6.40
2018,07,01,09,24,6.70
2018,07,01,09,25,8.10
2018,07,01,09,26,8.40
2018,07,01,09,27,6.50
2018,07,01,09,28,7.70
2018,07,01,09,29,5.90
2018,07,01,09,30,6.30
2018,07,01,09,31,6.10
2018,07,01,09,32,6.10
2018,07,01,09,33,6.00
2018,07,01,09,34,6.20
2018,07,01,09,35,6.50
2018,07,01,09,36,6.40
2018,07,01,09,37,6.40
2018,07,01,09,38,7.20
2018,07,01,09,39,6.10
2018,07,01,09,40,6.10
2018,07,01,09,41,5.60
2018,07,01,09,42,6.00
2018,07,01,09,43,3.80
2018,07,01,09,44,7.00
2018,07,01,09,45,6.20
2018,07,01,09,46,5.70
2018,07,01,09,47,4.10
2018,07,01,09,48,4.30
2018,07,01,09,49,5.10
2018,07,01,09,50,6.40
2018,07,01,09,51,8.30
2018,07,01,09,52,7.60
2018,07,01,09,53,6.40
2018,07,01,09,54,5.40
2018,07,01,09,55,8.00
2018,07,01,09,56,5.60
2018,07,01,09,57,6.90
2018,07,01,09,58,7.20
2018,07,01,09,59,6.60
2018,07,01,10,00,4.70
2018,07,01,10,01,5.50
2018,07,01,10,02,7.60
2018,07,01,10,03,5.20
2018,07,01,10,04,7.50
2018,07,01,10,05,6.80
2018,07,01,10,06,6.50
2018,07,01,10,07,6.00
2018,07,01,10,08,8.50
2018,07,01,10,09,8.60
2018,07,01,10,10,6.60
2018,07,01,10,11,6.60
2018,07,01,10,12,6.50
2018,07,01,10,13,7.10
2018,07,01,10,14,8.40
2018,07,01,10,15,8.80
2018,07,01,10,16,3.10
2018,07,01,10,17,8.80
2018,07,01,10,18,8.90
2018,07,01,10,19,5.40
2018,07,01,10,20,4.80
2018,07,01,10,21,5.20
2018,07,01,10,22,7.10
2018,07,01,10,23,6.40
2018,07,01,10,24,5.60
2018,07,01,10,25,5.80
2018,07,01,10,26,6.00
2018,07,01,10,27,9.70
2018,07,01,10,28,11.80
2018,07,01,10,29,9.80
2018,07,01,10,30,9.00
2018,07,01,10,31,11.10
2018,07,01,10,32,6.60
2018,07,01,10,33,11.20
2018,07,01,10,34,12.10
2018,07,01,10,35,10.10
2018,07,01,10,36,7.10
2018,07,01,10,37,8.10
2018,07,01,10,38,11.10
2018,07,01,10,39,11.70
2018,07,01,10,40,9.90
2018,07,01,10,41,6.00
2018,07,01,10,42,4.50
2018,07,01,10,43,13.10
2018,07,01,10,44,8.50
2018,07,01,10,45,5.60
2018,07,01,10,46,7.10
2018,07,01,10,47,9.70
2018,07,01,10,48,9.30
2018,07,01,10,49,6.80
2018,07,01,10,50,8.40
2018,07,01,10,51,8.50
2018,07,01,10,52,10.60
2018,07,01,10,53,11.30
2018,07,01,10,54,5.90
2018,07,01,10,55,10.60
2018,07,01,10,56,8.10
2018,07,01,10,57,5.40
2018,07,01,10,58,10.40
2018,07,01,10,59,10.30
2018,07,01,11,00,8.70
2018,07,01,11,01,11.30
2018,07,01,11,02,8.50
2018,07,01,11,03,8.20
2018,07,01,11,04,9.30
2018,07,01,11,05,8.40
2018,07,01,11,06,7.50
2018,07,01,11,07,10.30
2018,07,01,11,08,12.30
2018,07,01,11,09,10.70
2018,07,01,11,10,12.40
2018,07,01,11,11,8.60
2018,07,01,11,12,10.90
2018,07,01,11,13,7.20
2018,07,01,11,14,5.10
2018,07,01,11,15,5.20
2018,07,01,11,16,8.50
2018,07,01,11,17,7.70
2018,07,01,11,18,7.00
2018,07,01,11,19,7.00
2018,07,01,11,20,5.20
2018,07,01,11,21,9.10
2018,07,01,11,22,12.30
2018,07,01,11,23,9.40
2018,07,01,11,24,8.10
2018,07,01,11,25,8.10
2018,07,01,11,26,9.60
2018,07,01,11,27,4.70
2018,07,01,11,28,9.10
2018,07,01,11,29,8.50
2018,07,01,11,30,9.70
2018,07,01,11,31,8.50
2018,07,01,11,32,6.40
2018,07,01,11,33,9.20
2018,07,01,11,34,6.90
2018,07,01,11,35,10.10
2018,07,01,11,36,6.00
2018,07,01,11,37,7.20
2018,07,01,11,38,6.70
2018,07,01,11,39,6.40
2018,07,01,11,40,7.30
2018,07,01,11,41,11.30
2018,07,01,11,42,10.10
2018,07,01,11,43,6.80
2018,07,01,11,44,10.10
2018,07,01,11,45,6.80
2018,07,01,11,46,12.90
2018,07,01,11,47,14.60
2018,07,01,11,48,4.20
2018,07,01,11,49,10.60
2018,07,01,11,50,8.80
2018,07,01,11,51,8.90
2018,07,01,11,52,9.40
2018,07,01,11,53,8.10
2018,07,01,11,54,7.60
2018,07,01,11,55,12.60
2018,07,01,11,56,6.40
2018,07,01,11,57,7.90
2018,07,01,11,58,10.60
2018,07,01,11,59,11.70
2018,07,01,12,00,4.80
2018,07,01,12,01,5.20
2018,07,01,12,02,4.60
2018,07,01,12,03,5.50
2018,07,01,12,04,8.20
2018,07,01,12,05,9.30
2018,07,01,12,06,8.10
2018,07,01,12,07,12.10
2018,07,01,12,08,10.10
2018,07,01,12,09,9.50
2018,07,01,12,10,10.20
2018,07,01,12,11,7.50
2018,07,01,12,12,10.50
2018,07,01,12,13,13.90
2018,07,01,12,14,9.20
2018,07,01,12,15,9.40
2018,07,01,12,16,16.70
2018,07,01,12,17,11.20
2018,07,01,12,18,11.30
2018,07,01,12,19,16.90
2018,07,01,12,20,8.10
2018,07,01,12,21,9.50
2018,07,01,12,22,10.00
2018,07,01,12,23,12.60
2018,07,01,12,24,12.60
2018,07,01,12,25,4.80
2018,07,01,12,26,8.00
2018,07,01,12,27,9.70
2018,07,01,12,28,9.10
2018,07,01,12,29,5.70
2018,07,01,12,30,6.60
2018,07,01,12,31,9.70
2018,07,01,12,32,15.10
2018,07,01,12,33,13.50
2018,07,01,12,34,11.20
2018,07,01,12,35,10.80
2018,07,01,12,36,11.80
2018,07,01,12,37,13.20
2018,07,01,12,38,10.60
2018,07,01,12,39,10.60
2018,07,01,12,40,10.70
2018,07,01,12,41,8.70
2018,07,01,12,42,11.30
2018,07,01,12,43,9.40
2018,07,01,12,44,8.40
2018,07,01,12,45,9.00
2018,07,01,12,46,7.50
2018,07,01,12,47,12.50
2018,07,01,12,48,10.10
2018,07,01,12,49,10.60
2018,07,01,12,50,13.40
2018,07,01,12,51,11.40
2018,07,01,12,52,14.50
2018,07,01,12,53,12.30
2018,07,01,12,54,13.50
2018,07,01,12,55,12.80
2018,07,01,12,56,8.00
2018,07,01,12,57,7.50
2018,07,01,12,58,7.80
2018,07,01,12,59,14.60
2018,07,01,13,00,14.00
2018,07,01,13,01,15.40
2018,07,01,13,02,10.70
2018,07,01,13,03,10.30
2018,07,01,13,04,10.70
2018,07,01,13,05,10.30
2018,07,01,13,06,9.80
2018,07,01,13,07,11.70
2018,07,01,13,08,13.20
2018,07,01,13,09,14.80
2018,07,01,13,10,12.20
2018,07,01,13,11,14.20
2018,07,01,13,12,8.60
2018,07,01,13,13,7.60
2018,07,01,13,14,14.00
2018,07,01,13,15,6.70
2018,07,01,13,16,8.90
2018,07,01,13,17,7.60
2018,07,01,13,18,9.20
2018,07,01,13,19,8.10
2018,07,01,13,20,14.40
2018,07,01,13,21,11.50
2018,07,01,13,22,10.50
2018,07,01,13,23,8.60
2018,07,01,13,24,8.00
2018,07,01,13,25,10.10
2018,07,01,13,26,10.40
2018,07,01,13,27,9.50
2018,07,01,13,28,9.70
2018,07,01,13,29,11.40
2018,07,01,13,30,12.40
2018,07,01,13,31,10.40
2018,07,01,13,32,7.80
2018,07,01,13,33,8.30
2018,07,01,13,34,8.80
2018,07,01,13,35,10.20
2018,07,01,13,36,10.30
2018,07,01,13,37,13.80
2018,07,01,13,38,8.20
2018,07,01,13,39,9.30
2018,07,01,13,40,12.20
2018,07,01,13,41,7.60
2018,07,01,13,42,9.30
2018,07,01,13,43,11.40
2018,07,01,13,44,9.00
2018,07,01,13,45,15.80
2018,07,01,13,46,13.60
2018,07,01,13,47,15.10
2018,07,01,13,48,8.20
2018,07,01,13,49,10.40
2018,07,01,13,50,9.30
2018,07,01,13,51,5.90
2018,07,01,13,52,7.70
2018,07,01,13,53,12.60
2018,07,01,13,54,10.70
2018,07,01,13,55,11.60
2018,07,01,13,56,13.40
2018,07,01,13,57,9.30
2018,07,01,13,58,13.40
2018,07,01,13,59,9.80
2018,07,01,14,00,15.90
2018,07,01,14,01,13.80
2018,07,01,14,02,7.10
2018,07,01,14,03,12.10
2018,07,01,14,04,13.20
2018,07,01,14,05,20.30
2018,07,01,14,06,14.90
2018,07,01,14,07,7.30
2018,07,01,14,08,11.40
2018,07,01,14,09,7.50
2018,07,01,14,10,7.60
2018,07,01,14,11,13.50
2018,07,01,14,12,11.30
2018,07,01,14,13,8.30
2018,07,01,14,14,8.40
2018,07,01,14,15,15.10
2018,07,01,14,16,13.00
2018,07,01,14,17,9.30
2018,07,01,14,18,10.80
2018,07,01,14,19,9.60
2018,07,01,14,20,10.40
2018,07,01,14,21,18.40
2018,07,01,14,22,11.20
2018,07,01,14,23,7.60
2018,07,01,14,24,11.90
2018,07,01,14,25,9.90
2018,07,01,14,26,10.90
2018,07,01,14,27,10.50
2018,07,01,14,28,12.90
2018,07,01,14,29,11.00
2018,07,01,14,30,14.30
2018,07,01,14,31,12.60
2018,07,01,14,32,9.20
2018,07,01,14,33,10.40
2018,07,01,14,34,9.20
2018,07,01,14,35,10.70
2018,07,01,14,36,10.40
2018,07,01,14,37,9.70
2018,07,01,14,38,10.90
2018,07,01,14,39,11.10
2018,07,01,14,40,15.40
2018,07,01,14,41,13.00
2018,07,01,14,42,9.30
2018,07,01,14,43,9.40
2018,07,01,14,44,10.70
2018,07,01,14,45,11.30
2018,07,01,14,46,12.10
2018,07,01,14,47,14.10
2018,07,01,14,48,8.80
2018,07,01,14,49,10.10
2018,07,01,14,50,14.10
2018,07,01,14,51,12.30
2018,07,01,14,52,12.50
2018,07,01,14,53,12.60
2018,07,01,14,54,9.40
2018,07,01,14,55,7.70
2018,07,01,14,56,7.80
2018,07,01,14,57,13.00
2018,07,01,14,58,10.90
2018,07,01,14,59,6.90
2018,07,01,15,00,9.40
2018,07,01,15,01,10.20
2018,07,01,15,02,10.90
2018,07,01,15,03,9.30
2018,07,01,15,04,9.20
2018,07,01,15,05,9.90
2018,07,01,15,06,8.40
2018,07,01,15,07,13.10
2018,07,01,15,08,14.00
2018,07,01,15,09,9.20
2018,07,01,15,10,10.80
2018,07,01,15,11,13.10
2018,07,01,15,12,14.00
2018,07,01,15,13,13.00
2018,07,01,15,14,12.50
2018,07,01,15,15,9.10
2018,07,01,15,16,8.10
2018,07,01,15,17,10.80
2018,07,01,15,18,15.00
2018,07,01,15,19,13.10
2018,07,01,15,20,13.40
2018,07,01,15,21,9.70
2018,07,01,15,22,10.80
2018,07,01,15,23,13.40
2018,07,01,15,24,7.50
2018,07,01,15,25,10.70
2018,07,01,15,26,12.60
2018,07,01,15,27,9.20
2018,07,01,15,28,12.20
2018,07,01,15,29,18.30
2018,07,01,15,30,13.60
2018,07,01,15,31,14.90
2018,07,01,15,32,10.10
2018,07,01,15,33,15.70
2018,07,01,15,34,13.80
2018,07,01,15,35,13.60
2018,07,01,15,36,12.60
2018,07,01,15,37,14.30
2018,07,01,15,38,11.90
2018,07,01,15,39,11.30
2018,07,01,15,40,11.00
2018,07,01,15,41,13.80
2018,07,01,15,42,9.80
2018,07,01,15,43,17.90
2018,07,01,15,44,15.80
2018,07,01,15,45,14.70
2018,07,01,15,46,18.60
2018,07,01,15,47,17.90
2018,07,01,15,48,15.20
2018,07,01,15,49,15.40
2018,07,01,15,50,11.80
2018,07,01,15,51,11.90
2018,07,01,15,52,13.40
2018,07,01,15,53,13.90
2018,07,01,15,54,14.40
2018,07,01,15,55,16.20
2018,07,01,15,56,16.30
2018,07,01,15,57,17.70
2018,07,01,15,58,13.40
2018,07,01,15,59,16.70
2018,07,01,16,00,13.00
2018,07,01,16,01,15.20
2018,07,01,16,02,13.40
2018,07,01,16,03,16.80
2018,07,01,16,04,15.10
2018,07,01,16,05,13.40
2018,07,01,16,06,6.60
2018,07,01,16,07,12.10
2018,07,01,16,08,10.90
2018,07,01,16,09,14.00
2018,07,01,16,10,12.80
2018,07,01,16,11,8.60
2018,07,01,16,12,9.30
2018,07,01,16,13,6.40
2018,07,01,16,14,8.20
2018,07,01,16,15,14.30
2018,07,01,16,16,8.80
2018,07,01,16,17,10.30
2018,07,01,16,18,11.30
2018,07,01,16,19,4.10
2018,07,01,16,20,7.60
2018,07,01,16,21,7.40
2018,07,01,16,22,7.60
2018,07,01,16,23,13.10
2018,07,01,16,24,8.40
2018,07,01,16,25,7.20
2018,07,01,16,26,7.70
2018,07,01,16,27,9.20
2018,07,01,16,28,7.40
2018,07,01,16,29,9.70
2018,07,01,16,30,5.50
2018,07,01,16,31,6.30
2018,07,01,16,32,7.80
2018,07,01,16,33,7.70
2018,07,01,16,34,5.80
2018,07,01,16,35,12.70
2018,07,01,16,36,14.20
2018,07,01,16,37,19.00
2018,07,01,16,38,10.60
2018,07,01,16,39,7.70
2018,07,01,16,40,7.50
2018,07,01,16,41,6.80
2018,07,01,16,42,7.50
2018,07,01,16,43,8.20
2018,07,01,16,44,12.80
2018,07,01,16,45,16.00
2018,07,01,16,46,15.70
2018,07,01,16,47,10.20
2018,07,01,16,48,10.80
2018,07,01,16,49,5.20
2018,07,01,16,50,11.30
2018,07,01,16,51,15.00
2018,07,01,16,52,11.60
2018,07,01,16,53,16.30
2018,07,01,16,54,12.60
2018,07,01,16,55,10.40
2018,07,01,16,56,8.20
2018,07,01,16,57,11.60
2018,07,01,16,58,13.80
2018,07,01,16,59,9.30
2018,07,01,17,00,7.70
2018,07,01,17,01,16.90
2018,07,01,17,02,11.00
2018,07,01,17,03,21.90
2018,07,01,17,04,18.60
2018,07,01,17,05,17.10
2018,07,01,17,06,13.00
2018,07,01,17,07,12.20
2018,07,01,17,08,13.50
2018,07,01,17,09,12.00
2018,07,01,17,10,11.80
2018,07,01,17,11,13.80
2018,07,01,17,12,15.40
2018,07,01,17,13,12.30
2018,07,01,17,14,12.40
2018,07,01,17,15,8.00
2018,07,01,17,16,13.00
2018,07,01,17,17,9.20
2018,07,01,17,18,5.80
2018,07,01,17,19,9.70
2018,07,01,17,20,6.80
2018,07,01,17,21,10.10
2018,07,01,17,22,14.50
2018,07,01,17,23,10.00
2018,07,01,17,24,12.10
2018,07,01,17,25,12.10
2018,07,01,17,26,7.30
2018,07,01,17,27,14.30
2018,07,01,17,28,14.30
2018,07,01,17,29,11.10
2018,07,01,17,30,6.40
2018,07,01,17,31,16.40
2018,07,01,17,32,12.70
2018,07,01,17,33,13.10
2018,07,01,17,34,13.70
2018,07,01,17,35,8.20
2018,07,01,17,36,8.10
2018,07,01,17,37,12.30
2018,07,01,17,38,14.60
2018,07,01,17,39,17.40
2018,07,01,17,40,19.20
2018,07,01,17,41,13.40
2018,07,01,17,42,15.40
2018,07,01,17,43,18.40
2018,07,01,17,44,11.50
2018,07,01,17,45,14.20
2018,07,01,17,46,13.00
2018,07,01,17,47,14.80
2018,07,01,17,48,11.90
2018,07,01,17,49,16.20
2018,07,01,17,50,17.10
2018,07,01,17,51,11.40
2018,07,01,17,52,15.90
2018,07,01,17,53,10.90
2018,07,01,17,54,10.90